Location: Kumla
(59.1265°N, 15.1401°E)
Time: 09:01:58
(UTC+01:00)

Transit 2A - Pass Details

Date: 04 December 2023
Orbit: 600 x 953 km, 66.7° (Epoch: 22 February)

Event Time Altitude Azimuth Distance (km) Brightness Sun altitude
Rises 21:46:27 0° 304° (NW) 2,933 9.7 -47.2°
Enters shadow 21:46:52 - 305° (NW) 2,769 9.6 -47.2°
Reaches altitude 10° 21:48:51 10° 311° (NW) 1,992 - -47.4°
Maximum altitude 21:53:08 45° 25° (NNE) 825 - -47.8°
Drops below altitude 10° 21:57:19 10° 99° (E) 1,950 - -48.1°
Sets 21:59:38 0° 106° (ESE) 2,862 - -48.3°
